カタログに戻る

RADUGA 1-7

運用中軍事GEO
NORAD 28194·PAYLOAD·🇷🇺 Russia

打ち上げ Mar 27, 2004 から Baikonur Cosmodrome

Loading…

TLE

最新Source: Space-Track

元期: Sep 13, 2026, 23:56 UTC

1 28194U 04010A   26256.99739848  .00000077  00000-0  00000-0 0  9991
2 28194  13.7804  20.0215 0005459 232.0859 117.5515  1.00255946 82301

AllMySatでRADUGA 1-7をリアルタイム追跡

Download on the App Store